sat.trackr.live / text

‹ back to catalog

STARLINK-32544

NORAD 61917 · 2024-207F

PAYLOAD ACTIVE UNKNOWN

§ Identity

Operator
Country
US
Launch date
2024-11-11
Launch site
AFETR
Launch vehicle
Mass (kg)
RCS (m²)

Purposes: comms

External: N2YO · Heavens-Above · Gunter

§ Orbital elements

Epoch: 2026-09-21T07:49:34.844736Z

Period
94.27 min
Inclination
43.0009°
Eccentricity
0.0001552
Mean motion
15.27598994 rev/d
Perigee alt
481.9 km
Apogee alt
484.1 km
Semi-major
6,861.1 km
B*
4.2175e-4
RAAN
256.7616°
Arg perigee
260.9465°
Mean anomaly
99.1211°
Rev number
10,464

§ Raw data

STARLINK-325441 61917U 24207F   26264.32609774  .00011368  00000+0  42175-3 0  99972 61917  43.0009 256.7616 0001552 260.9465  99.1211 15.27598994104647

JSON: /api/v1/satellites/61917 · /tle

For live sub-satellite position, see the globe view (requires WebGL).

§ Visibility from observer

Set your observer location to see the next 7 days of passes ≥ 10°. The values pass through the URL so the page stays shareable.

No JS? Fill the form by hand. The geolocation button needs JavaScript.